| time (UTC) | temp C | wind direction | speed KPH | gust KPH | rain 1hr cm | rain 24hr cm | rain mn cm | humidity % | barometer mb |
| 20260510001554 | 13 | 46 | 6.4 | 14.5 | 0.00 | 0.15 | 0.08 | 47 | 997.4 |
| 20260510000048 | 13 | 282 | 1.6 | 11.3 | 0.00 | 0.15 | 0.08 | 47 | 997.7 |
| 20260509234503 | 12 | 68 | 4.8 | 12.9 | 0.00 | 0.15 | 0.08 | 48 | 997.8 |
| 20260509233053 | 12 | 312 | 4.8 | 12.9 | 0.00 | 0.15 | 0.08 | 48 | 998.0 |
| 20260509231549 | 12 | 18 | 4.8 | 11.3 | 0.00 | 0.15 | 0.08 | 51 | 998.0 |
| 20260509230044 | 12 | 80 | 3.2 | 14.5 | 0.00 | 0.15 | 0.08 | 51 | 998.1 |
| 20260509224557 | 12 | 34 | 3.2 | 8.0 | 0.00 | 0.15 | 0.08 | 53 | 998.2 |
| 20260509223054 | 11 | 110 | 1.6 | 8.0 | 0.00 | 0.15 | 0.08 | 55 | 998.2 |
| 20260509221525 | 11 | 1 | 1.6 | 8.0 | 0.00 | 0.15 | 0.08 | 57 | 998.4 |
| 20260509220104 | 11 | 275 | 1.6 | 8.0 | 0.00 | 0.15 | 0.08 | 62 | 998.5 |
| 20260509214505 | 10 | 4 | 3.2 | 6.4 | 0.00 | 0.15 | 0.08 | 63 | 998.7 |
| 20260509213053 | 9 | 205 | 3.2 | 6.4 | 0.00 | 0.15 | 0.08 | 67 | 998.9 |
| 20260509211547 | 9 | 224 | 3.2 | 9.7 | 0.00 | 0.15 | 0.08 | 70 | 998.9 |
| 20260509210054 | 8 | 255 | 3.2 | 6.4 | 0.00 | 0.15 | 0.08 | 71 | 998.9 |
| 20260509204602 | 8 | 79 | 1.6 | 6.4 | 0.00 | 0.15 | 0.08 | 75 | 998.8 |
| 20260509203055 | 7 | 328 | 1.6 | 6.4 | 0.00 | 0.15 | 0.08 | 78 | 998.6 |
| 20260509201548 | 6 | 133 | 1.6 | 6.4 | 0.00 | 0.15 | 0.08 | 79 | 998.8 |
| 20260509200107 | 6 | 145 | 1.6 | 9.7 | 0.00 | 0.15 | 0.08 | 81 | 998.9 |
| 20260509194556 | 6 | 105 | 1.6 | 3.2 | 0.00 | 0.15 | 0.08 | 82 | 998.8 |
| 20260509193100 | 6 | 247 | 0.0 | 3.2 | 0.00 | 0.15 | 0.08 | 80 | 998.6 |
| 20260509191609 | 6 | 86 | 1.6 | 3.2 | 0.00 | 0.15 | 0.08 | 80 | 998.8 |
| 20260509190049 | 6 | 113 | 0.0 | 4.8 | 0.00 | 0.15 | 0.08 | 82 | 998.8 |
| 20260509184558 | 5 | 136 | 0.0 | 4.8 | 0.00 | 0.15 | 0.08 | 83 | 998.8 |
| 20260509183052 | 5 | 44 | 0.0 | 3.2 | 0.00 | 0.15 | 0.08 | 85 | 998.8 |
| 20260509181547 | 4 | 74 | 0.0 | 3.2 | 0.00 | 0.15 | 0.08 | 86 | 998.7 |
| 20260509180039 | 4 | 97 | 1.6 | 6.4 | 0.00 | 0.15 | 0.08 | 88 | 998.7 |
| 20260509174557 | 3 | 121 | 1.6 | 8.0 | 0.00 | 0.15 | 0.08 | 88 | 998.7 |
| 20260509173057 | 4 | 131 | 0.0 | 4.8 | 0.00 | 0.15 | 0.08 | 89 | 998.7 |
| 20260509171601 | 4 | 129 | 0.0 | 4.8 | 0.00 | 0.15 | 0.08 | 89 | 998.7 |
| 20260509170059 | 3 | 53 | 0.0 | 6.4 | 0.00 | 0.15 | 0.08 | 91 | 998.7 |
| 20260509164557 | 3 | 65 | 0.0 | 4.8 | 0.00 | 0.15 | 0.08 | 93 | 999.0 |
| 20260509163056 | 2 | 32 | 0.0 | 4.8 | 0.00 | 0.15 | 0.08 | 95 | 998.9 |
| 20260509161545 | 1 | 331 | 1.6 | 4.8 | 0.00 | 0.15 | 0.08 | 95 | 998.8 |
| 20260509160058 | 1 | 328 | 1.6 | 8.0 | 0.00 | 0.15 | 0.08 | 96 | 998.7 |
| 20260509154551 | 0 | 342 | 1.6 | 4.8 | 0.00 | 0.15 | 0.08 | 97 | 998.8 |
| 20260509153046 | 0 | 332 | 0.0 | 1.6 | 0.00 | 0.15 | 0.08 | 97 | 998.9 |
| 20260509151500 | 0 | 225 | 0.0 | 0.0 | 0.00 | 0.15 | 0.08 | 97 | 999.0 |
| 20260509150052 | 0 | 225 | 0.0 | 0.0 | 0.00 | 0.15 | 0.08 | 97 | 999.1 |
| 20260509144551 | 0 | 152 | 0.0 | 0.0 | 0.00 | 0.15 | 0.08 | 97 | 999.3 |
| 20260509143043 | 0 | 160 | 0.0 | 1.6 | 0.00 | 0.15 | 0.08 | 96 | 999.3 |
| 20260509141557 | 0 | 166 | 0.0 | 3.2 | 0.00 | 0.15 | 0.08 | 96 | 999.4 |
| 20260509140050 | 0 | 80 | 0.0 | 0.0 | 0.00 | 0.15 | 0.08 | 96 | 999.4 |
| 20260509134508 | 0 | 70 | 1.6 | 6.4 | 0.00 | 0.15 | 0.08 | 96 | 999.4 |
| 20260509133059 | 0 | 357 | 1.6 | 11.3 | 0.00 | 0.15 | 0.08 | 96 | 999.5 |
| 20260509131613 | 0 | 47 | 0.0 | 6.4 | 0.00 | 0.15 | 0.08 | 97 | 999.9 |
| 20260509130056 | 0 | 341 | 0.0 | 4.8 | 0.00 | 0.15 | 0.08 | 97 | 1000.0 |
| 20260509124502 | 0 | 38 | 0.0 | 6.4 | 0.00 | 0.15 | 0.08 | 97 | 1000.2 |
| 20260509123102 | 0 | 145 | 0.0 | 3.2 | 0.00 | 0.15 | 0.08 | 97 | 1000.6 |
| 20260509121551 | 0 | 359 | 0.0 | 1.6 | 0.03 | 0.15 | 0.08 | 97 | 1000.8 |
| 20260509120045 | 0 | 222 | 0.0 | 0.0 | 0.03 | 0.15 | 0.08 | 97 | 1000.9 |
| 20260509114611 | 0 | 222 | 0.0 | 0.0 | 0.03 | 0.15 | 0.08 | 97 | 1001.2 |
| 20260509113055 | 0 | 222 | 0.0 | 0.0 | 0.03 | 0.15 | 0.08 | 97 | 1001.3 |
| 20260509111551 | 0 | 222 | 0.0 | 0.0 | 0.00 | 0.13 | 0.05 | 97 | 1001.5 |
| 20260509110108 | 0 | 222 | 0.0 | 0.0 | 0.00 | 0.13 | 0.05 | 96 | 1001.6 |
| 20260509104613 | 0 | 222 | 0.0 | 0.0 | 0.03 | 0.13 | 0.05 | 96 | 1001.8 |
| 20260509103050 | 0 | 222 | 0.0 | 1.6 | 0.03 | 0.13 | 0.05 | 96 | 1001.9 |
| 20260509101506 | 0 | 222 | 0.0 | 0.0 | 0.03 | 0.13 | 0.05 | 96 | 1002.2 |
| 20260509100100 | 0 | 222 | 0.0 | 0.0 | 0.03 | 0.13 | 0.05 | 96 | 1002.3 |
| 20260509094609 | 0 | 222 | 0.0 | 0.0 | 0.00 | 0.10 | 0.03 | 96 | 1002.4 |
| 20260509093145 | 1 | 222 | 0.0 | 0.0 | 0.00 | 0.10 | 0.03 | 96 | 1002.5 |
| 20260509091502 | 1 | 222 | 0.0 | 0.0 | 0.00 | 0.10 | 0.03 | 96 | 1002.8 |
| 20260509084557 | 1 | 222 | 0.0 | 0.0 | 0.03 | 0.10 | 0.03 | 95 | 1003.3 |
| 20260509083047 | 1 | 222 | 0.0 | 0.0 | 0.03 | 0.10 | 0.03 | 95 | 1003.5 |
| 20260509081556 | 1 | 222 | 0.0 | 0.0 | 0.03 | 0.10 | 0.03 | 95 | 1003.6 |
| 20260509080053 | 1 | 222 | 0.0 | 0.0 | 0.00 | 0.08 | 0.00 | 95 | 1003.8 |
| 20260509074503 | 1 | 222 | 0.0 | 0.0 | 0.00 | 0.08 | 0.08 | 94 | 1004.0 |
| 20260509073056 | 1 | 222 | 0.0 | 0.0 | 0.03 | 0.08 | 0.08 | 94 | 1003.9 |
| 20260509071559 | 1 | 222 | 0.0 | 0.0 | 0.03 | 0.08 | 0.08 | 93 | 1004.1 |
| 20260509070044 | 1 | 222 | 0.0 | 0.0 | 0.03 | 0.08 | 0.08 | 93 | 1004.3 |
| 20260509064559 | 1 | 222 | 0.0 | 1.6 | 0.03 | 0.08 | 0.08 | 93 | 1004.3 |
| 20260509063055 | 2 | 222 | 0.0 | 0.0 | 0.00 | 0.05 | 0.05 | 93 | 1004.4 |
| 20260509061553 | 2 | 222 | 0.0 | 0.0 | 0.03 | 0.05 | 0.05 | 92 | 1004.7 |
| 20260509060002 | 2 | 222 | 0.0 | 0.0 | 0.03 | 0.05 | 0.05 | 91 | 1004.7 |
| 20260509054616 | 2 | 222 | 0.0 | 0.0 | 0.05 | 0.05 | 0.05 | 91 | 1004.7 |
| 20260509053141 | 2 | 222 | 0.0 | 1.6 | 0.05 | 0.05 | 0.05 | 90 | 1004.6 |
| 20260509051552 | 2 | 250 | 0.0 | 0.0 | 0.03 | 0.03 | 0.03 | 88 | 1004.8 |
| 20260509050005 | 2 | 250 | 0.0 | 0.0 | 0.03 | 0.03 | 0.03 | 87 | 1004.9 |
| 20260509044555 | 3 | 219 | 0.0 | 0.0 | 0.00 | 0.00 | 0.00 | 87 | 1005.1 |
| 20260509043050 | 3 | 150 | 0.0 | 0.0 | 0.00 | 0.00 | 0.00 | 84 | 1005.2 |
| 20260509041546 | 3 | 151 | 0.0 | 0.0 | 0.00 | 0.00 | 0.00 | 83 | 1005.3 |
| 20260509040113 | 3 | 304 | 0.0 | 1.6 | 0.00 | 0.00 | 0.00 | 82 | 1005.4 |
| 20260509034627 | 3 | 309 | 0.0 | 3.2 | 0.00 | 0.00 | 0.00 | 81 | 1005.5 |
| 20260509033049 | 3 | 129 | 0.0 | 0.0 | 0.00 | 0.00 | 0.00 | 80 | 1005.8 |
| 20260509031501 | 3 | 144 | 0.0 | 3.2 | 0.00 | 0.00 | 0.00 | 81 | 1005.9 |
| 20260509030109 | 4 | 226 | 0.0 | 1.6 | 0.00 | 0.00 | 0.00 | 82 | 1005.9 |
| 20260509024554 | 4 | 124 | 1.6 | 6.4 | 0.00 | 0.00 | 0.00 | 80 | 1006.0 |
| 20260509023052 | 4 | 156 | 1.6 | 8.0 | 0.00 | 0.00 | 0.00 | 77 | 1006.0 |
| 20260509021504 | 5 | 96 | 0.0 | 4.8 | 0.00 | 0.00 | 0.00 | 71 | 1006.2 |
| 20260509020056 | 5 | 182 | 3.2 | 12.9 | 0.00 | 0.00 | 0.00 | 68 | 1006.2 |
| 20260509014600 | 6 | 204 | 0.0 | 8.0 | 0.00 | 0.00 | 0.00 | 63 | 1006.1 |
| 20260509013102 | 6 | 162 | 4.8 | 11.3 | 0.00 | 0.00 | 0.00 | 62 | 1006.2 |
| 20260509011503 | 6 | 162 | 1.6 | 11.3 | 0.00 | 0.00 | 0.00 | 63 | 1006.4 |
| 20260509010056 | 6 | 232 | 4.8 | 17.7 | 0.00 | 0.00 | 0.00 | 65 | 1006.4 |
| 20260509004549 | 6 | 253 | 6.4 | 14.5 | 0.00 | 0.00 | 0.00 | 63 | 1006.5 |
| 20260509003134 | 6 | 241 | 6.4 | 14.5 | 0.00 | 0.00 | 0.00 | 62 | 1006.7 |